Location: Home
(51.5204°N, 2.5456°W)
Time: 23:32:48
(UTC+00:00)

STRAND 1 - Pass Details

Date: 09 December 2019
Orbit: 768 x 781 km, 98.5° (Epoch: 21 January)

Event Time Altitude Azimuth Distance (km) Brightness Sun altitude
Rises 04:36:28 0° 103° (ESE) 3,255 ? -30.9°
Reaches altitude 10° 04:39:58 10° 78° (ENE) 2,329 ? -30.3°
Maximum altitude 04:42:21 13° 50° (NE) 2,100 ? -29.9°
Drops below altitude 10° 04:44:43 10° 22° (NNE) 2,331 ? -29.6°
Enters shadow 04:47:48 - 359° (N) 3,128 ? -29.1°
